| time (UTC) | temp F | wind direction | speed MPH | gust MPH | rain 1hr in | rain 24hr in | rain mn in | humidity % | barometer mb |
| 20260905214646 | 96 | 17 | 5.0 | 9.0 | 0.00 | 0.00 | 0.00 | 26 | 1015.7 |
| 20260905213643 | 95 | 350 | 3.0 | 9.0 | 0.00 | 0.00 | 0.00 | 26 | 1015.9 |
| 20260905212656 | 95 | 276 | 5.0 | 10.0 | 0.00 | 0.00 | 0.00 | 26 | 1016.2 |
| 20260905210643 | 96 | 314 | 3.0 | 8.0 | 0.00 | 0.00 | 0.00 | 26 | 1016.6 |
| 20260905205652 | 95 | 13 | 3.0 | 10.0 | 0.00 | 0.00 | 0.00 | 27 | 1016.7 |
| 20260905204640 | 94 | 262 | 5.0 | 8.0 | 0.00 | 0.00 | 0.00 | 28 | 1017.1 |
| 20260905203638 | 94 | 217 | 5.0 | 10.0 | 0.00 | 0.00 | 0.00 | 29 | 1017.1 |
| 20260905202648 | 94 | 296 | 2.0 | 6.0 | 0.00 | 0.00 | 0.00 | 29 | 1017.2 |
| 20260905201642 | 93 | 76 | 3.0 | 6.0 | 0.00 | 0.00 | 0.00 | 28 | 1017.2 |
| 20260905200639 | 93 | 274 | 1.0 | 10.0 | 0.00 | 0.00 | 0.00 | 29 | 1017.3 |
| 20260905195652 | 93 | 259 | 3.0 | 12.0 | 0.00 | 0.00 | 0.00 | 30 | 1017.6 |
| 20260905194639 | 94 | 180 | 4.0 | 12.0 | 0.00 | 0.00 | 0.00 | 31 | 1017.5 |
| 20260905193653 | 93 | 76 | 2.0 | 11.0 | 0.00 | 0.00 | 0.00 | 32 | 1017.7 |
| 20260905192651 | 92 | 156 | 5.0 | 11.0 | 0.00 | 0.00 | 0.00 | 33 | 1017.9 |
| 20260905191641 | 92 | 198 | 3.0 | 9.0 | 0.00 | 0.00 | 0.00 | 34 | 1018.2 |
| 20260905190649 | 92 | 294 | 4.0 | 9.0 | 0.00 | 0.00 | 0.00 | 34 | 1018.2 |
| 20260905185643 | 91 | 196 | 6.0 | 10.0 | 0.00 | 0.00 | 0.00 | 35 | 1018.5 |
| 20260905184636 | 91 | 248 | 4.0 | 7.0 | 0.00 | 0.00 | 0.00 | 37 | 1018.7 |
| 20260905183651 | 90 | 267 | 4.0 | 10.0 | 0.00 | 0.00 | 0.00 | 38 | 1018.7 |
| 20260905182647 | 90 | 275 | 1.0 | 9.0 | 0.00 | 0.00 | 0.00 | 37 | 1019.0 |
| 20260905181733 | 89 | 263 | 2.0 | 7.0 | 0.00 | 0.00 | 0.00 | 38 | 1019.1 |
| 20260905175744 | 88 | 225 | 2.0 | 10.0 | 0.00 | 0.00 | 0.00 | 41 | 1019.3 |
| 20260905174741 | 87 | 250 | 3.0 | 10.0 | 0.00 | 0.00 | 0.00 | 42 | 1019.5 |
| 20260905173750 | 87 | 238 | 3.0 | 7.0 | 0.00 | 0.00 | 0.00 | 42 | 1019.5 |
| 20260905172740 | 87 | 222 | 1.0 | 8.0 | 0.00 | 0.00 | 0.00 | 42 | 1019.7 |
| 20260905170735 | 85 | 28 | 2.0 | 4.0 | 0.00 | 0.00 | 0.00 | 45 | 1019.7 |
| 20260905165748 | 84 | 298 | 3.0 | 6.0 | 0.00 | 0.00 | 0.00 | 46 | 1019.8 |
| 20260905164743 | 84 | 338 | 1.0 | 6.0 | 0.00 | 0.00 | 0.00 | 47 | 1019.7 |
| 20260905163742 | 83 | 348 | 2.0 | 6.0 | 0.00 | 0.00 | 0.00 | 49 | 1019.9 |
| 20260905162744 | 82 | 56 | 1.0 | 6.0 | 0.00 | 0.00 | 0.00 | 50 | 1019.9 |
| 20260905161746 | 82 | 265 | 0.0 | 7.0 | 0.00 | 0.00 | 0.00 | 51 | 1020.0 |
| 20260905155747 | 81 | 262 | 2.0 | 4.0 | 0.00 | 0.00 | 0.00 | 52 | 1020.1 |
| 20260905154736 | 81 | 200 | 3.0 | 6.0 | 0.00 | 0.00 | 0.00 | 54 | 1020.3 |
| 20260905153730 | 80 | 252 | 0.0 | 5.0 | 0.00 | 0.00 | 0.00 | 55 | 1020.2 |
| 20260905152738 | 80 | 191 | 3.0 | 7.0 | 0.00 | 0.00 | 0.00 | 57 | 1020.2 |
| 20260905151732 | 79 | 250 | 3.0 | 5.0 | 0.00 | 0.00 | 0.00 | 57 | 1020.2 |
| 20260905150744 | 79 | 246 | 3.0 | 7.0 | 0.00 | 0.00 | 0.00 | 57 | 1020.2 |
| 20260905145736 | 79 | 239 | 3.0 | 7.0 | 0.00 | 0.00 | 0.00 | 58 | 1020.1 |
| 20260905144745 | 78 | 206 | 5.0 | 8.0 | 0.00 | 0.00 | 0.00 | 60 | 1020.1 |
| 20260905143750 | 77 | 208 | 4.0 | 7.0 | 0.00 | 0.00 | 0.00 | 62 | 1020.1 |
| 20260905142745 | 76 | 205 | 5.0 | 7.0 | 0.00 | 0.01 | 0.00 | 64 | 1020.1 |
| 20260905140733 | 74 | 151 | 2.0 | 6.0 | 0.00 | 0.01 | 0.00 | 68 | 1019.8 |
| 20260905135730 | 73 | 187 | 3.0 | 5.0 | 0.00 | 0.01 | 0.00 | 69 | 1019.8 |
| 20260905134741 | 73 | 184 | 4.0 | 6.0 | 0.00 | 0.01 | 0.00 | 69 | 1019.6 |
| 20260905133738 | 72 | 184 | 3.0 | 6.0 | 0.00 | 0.01 | 0.00 | 69 | 1019.5 |
| 20260905130745 | 72 | 198 | 4.0 | 8.0 | 0.00 | 0.02 | 0.00 | 69 | 1019.3 |
| 20260905125740 | 71 | 173 | 5.0 | 10.0 | 0.00 | 0.02 | 0.00 | 68 | 1019.3 |
| 20260905124732 | 71 | 179 | 5.0 | 8.0 | 0.00 | 0.02 | 0.00 | 68 | 1019.2 |
| 20260905123744 | 71 | 180 | 5.0 | 7.0 | 0.00 | 0.02 | 0.00 | 68 | 1019.0 |
| 20260905122739 | 71 | 177 | 3.0 | 8.0 | 0.00 | 0.03 | 0.00 | 68 | 1019.0 |
| 20260905121734 | 71 | 191 | 5.0 | 10.0 | 0.00 | 0.03 | 0.00 | 68 | 1019.0 |
| 20260905120725 | 72 | 196 | 5.0 | 11.0 | 0.00 | 0.03 | 0.00 | 67 | 1018.9 |
| 20260905115740 | 71 | 175 | 7.0 | 11.0 | 0.00 | 0.03 | 0.00 | 67 | 1018.1 |
| 20260905114733 | 71 | 188 | 5.0 | 8.0 | 0.00 | 0.03 | 0.00 | 64 | 1018.3 |
| 20260905113726 | 71 | 175 | 1.0 | 2.0 | 0.00 | 0.03 | 0.00 | 63 | 1018.0 |
| 20260905112742 | 71 | 175 | 1.0 | 4.0 | 0.00 | 0.03 | 0.00 | 62 | 1017.7 |
| 20260905111740 | 71 | 137 | 2.0 | 4.0 | 0.00 | 0.03 | 0.00 | 63 | 1017.8 |
| 20260905110737 | 71 | 130 | 2.0 | 6.0 | 0.00 | 0.03 | 0.00 | 64 | 1017.6 |
| 20260905105728 | 71 | 141 | 3.0 | 5.0 | 0.00 | 0.03 | 0.00 | 63 | 1017.6 |
| 20260905104729 | 72 | 136 | 2.0 | 3.0 | 0.00 | 0.03 | 0.00 | 63 | 1017.6 |
| 20260905103726 | 72 | 98 | 2.0 | 4.0 | 0.00 | 0.03 | 0.00 | 61 | 1018.4 |
| 20260905102736 | 73 | 78 | 2.0 | 3.0 | 0.00 | 0.03 | 0.00 | 62 | 1018.5 |
| 20260905101725 | 74 | 49 | 0.0 | 2.0 | 0.00 | 0.03 | 0.00 | 61 | 1018.3 |
| 20260905100724 | 74 | 49 | 0.0 | 0.0 | 0.00 | 0.03 | 0.00 | 61 | 1018.2 |
| 20260905095734 | 74 | 49 | 0.0 | 2.0 | 0.00 | 0.03 | 0.00 | 62 | 1018.1 |
| 20260905094732 | 74 | 49 | 0.0 | 3.0 | 0.00 | 0.03 | 0.00 | 62 | 1018.0 |
| 20260905093729 | 74 | 73 | 1.0 | 3.0 | 0.00 | 0.03 | 0.00 | 62 | 1018.0 |
| 20260905092723 | 74 | 61 | 1.0 | 3.0 | 0.00 | 0.03 | 0.00 | 61 | 1017.9 |
| 20260905091733 | 74 | 71 | 1.0 | 2.0 | 0.00 | 0.03 | 0.00 | 60 | 1018.1 |
| 20260905090739 | 75 | 69 | 0.0 | 2.0 | 0.00 | 0.03 | 0.00 | 60 | 1018.0 |
| 20260905084730 | 75 | 57 | 0.0 | 3.0 | 0.00 | 0.03 | 0.00 | 60 | 1017.9 |
| 20260905083723 | 75 | 57 | 0.0 | 3.0 | 0.00 | 0.03 | 0.00 | 60 | 1018.1 |
| 20260905082733 | 75 | 57 | 2.0 | 3.0 | 0.00 | 0.03 | 0.00 | 59 | 1017.9 |
| 20260905075728 | 76 | 34 | 2.0 | 3.0 | 0.00 | 0.03 | 0.00 | 59 | 1018.0 |
| 20260905074725 | 76 | 335 | 0.0 | 1.0 | 0.00 | 0.03 | 0.00 | 57 | 1018.2 |
| 20260905072728 | 77 | 335 | 0.0 | 2.0 | 0.00 | 0.03 | 0.00 | 56 | 1018.3 |
| 20260905071726 | 77 | 344 | 0.0 | 1.0 | 0.00 | 0.03 | 0.00 | 56 | 1018.4 |
| 20260905070735 | 77 | 344 | 0.0 | 2.0 | 0.00 | 0.03 | 0.00 | 55 | 1018.2 |
| 20260905065721 | 78 | 28 | 1.0 | 2.0 | 0.00 | 0.03 | 0.00 | 55 | 1018.3 |
| 20260905064720 | 78 | 40 | 2.0 | 3.0 | 0.00 | 0.03 | 0.00 | 56 | 1018.1 |
| 20260905062736 | 78 | 33 | 2.0 | 4.0 | 0.00 | 0.03 | 0.00 | 55 | 1018.4 |
| 20260905061731 | 78 | 58 | 2.0 | 5.0 | 0.00 | 0.03 | 0.00 | 55 | 1018.4 |
| 20260905055724 | 78 | 65 | 2.0 | 4.0 | 0.00 | 0.03 | 0.00 | 55 | 1018.4 |
| 20260905054735 | 78 | 42 | 3.0 | 4.0 | 0.00 | 0.03 | 0.03 | 55 | 1018.5 |
| 20260905052721 | 78 | 16 | 3.0 | 7.0 | 0.00 | 0.03 | 0.03 | 54 | 1018.2 |
| 20260905051733 | 78 | 346 | 4.0 | 5.0 | 0.00 | 0.03 | 0.03 | 54 | 1018.3 |
| 20260905050733 | 79 | 351 | 4.0 | 5.0 | 0.00 | 0.03 | 0.03 | 53 | 1018.1 |
| 20260905045727 | 79 | 351 | 4.0 | 5.0 | 0.00 | 0.03 | 0.03 | 53 | 1018.4 |
| 20260905044719 | 79 | 360 | 6.0 | 9.0 | 0.00 | 0.03 | 0.03 | 53 | 1018.3 |
| 20260905043719 | 79 | 10 | 5.0 | 8.0 | 0.00 | 0.03 | 0.03 | 53 | 1018.4 |
| 20260905042732 | 80 | 12 | 4.0 | 7.0 | 0.00 | 0.03 | 0.03 | 53 | 1018.6 |
| 20260905041727 | 80 | 29 | 3.0 | 5.0 | 0.00 | 0.03 | 0.03 | 52 | 1018.5 |
| 20260905034732 | 81 | 65 | 3.0 | 5.0 | 0.00 | 0.03 | 0.03 | 51 | 1018.1 |
| 20260905033721 | 81 | 40 | 3.0 | 5.0 | 0.00 | 0.03 | 0.03 | 51 | 1018.0 |
| 20260905032731 | 81 | 32 | 3.0 | 4.0 | 0.00 | 0.03 | 0.03 | 50 | 1017.9 |
| 20260905031728 | 82 | 13 | 2.0 | 5.0 | 0.00 | 0.03 | 0.03 | 49 | 1017.8 |
| 20260905025720 | 82 | 19 | 2.0 | 7.0 | 0.00 | 0.03 | 0.03 | 48 | 1017.6 |
| 20260905024732 | 82 | 26 | 3.0 | 6.0 | 0.00 | 0.03 | 0.03 | 47 | 1017.5 |
| 20260905022719 | 83 | 360 | 2.0 | 4.0 | 0.00 | 0.03 | 0.03 | 45 | 1017.4 |
| 20260905021733 | 83 | 5 | 2.0 | 5.0 | 0.00 | 0.03 | 0.03 | 44 | 1017.3 |
| 20260905020730 | 83 | 360 | 4.0 | 8.0 | 0.00 | 0.03 | 0.03 | 44 | 1017.2 |
| 20260905015721 | 84 | 300 | 4.0 | 9.0 | 0.00 | 0.03 | 0.03 | 44 | 1017.1 |
| 20260905014719 | 84 | 355 | 4.0 | 6.0 | 0.00 | 0.03 | 0.03 | 43 | 1017.0 |
| 20260905013731 | 84 | 9 | 3.0 | 8.0 | 0.00 | 0.03 | 0.03 | 42 | 1016.7 |
| 20260905012724 | 84 | 314 | 3.0 | 7.0 | 0.00 | 0.03 | 0.03 | 42 | 1016.5 |
| 20260905011717 | 84 | 302 | 4.0 | 9.0 | 0.00 | 0.03 | 0.03 | 42 | 1016.7 |
| 20260905010731 | 85 | 300 | 5.0 | 12.0 | 0.00 | 0.03 | 0.03 | 44 | 1016.4 |
| 20260905005719 | 85 | 280 | 8.0 | 14.0 | 0.00 | 0.03 | 0.03 | 44 | 1016.5 |
| 20260905004733 | 86 | 5 | 10.0 | 12.0 | 0.00 | 0.03 | 0.03 | 43 | 1016.4 |
| 20260905003731 | 87 | 277 | 7.0 | 13.0 | 0.00 | 0.03 | 0.03 | 42 | 1016.3 |
| 20260905002722 | 88 | 333 | 9.0 | 13.0 | 0.00 | 0.03 | 0.03 | 39 | 1016.2 |
| 20260905001719 | 90 | 269 | 4.0 | 9.0 | 0.00 | 0.03 | 0.03 | 34 | 1016.0 |
| 20260905000719 | 90 | 215 | 4.0 | 9.0 | 0.00 | 0.03 | 0.03 | 34 | 1015.9 |
| 20260904235725 | 90 | 283 | 3.0 | 10.0 | 0.00 | 0.03 | 0.03 | 34 | 1015.8 |
| 20260904234719 | 92 | 259 | 7.0 | 10.0 | 0.00 | 0.03 | 0.03 | 33 | 1015.7 |
| 20260904233713 | 92 | 239 | 3.0 | 15.0 | 0.00 | 0.03 | 0.03 | 32 | 1015.7 |
| 20260904231715 | 92 | 275 | 6.0 | 9.0 | 0.00 | 0.03 | 0.03 | 33 | 1015.8 |
| 20260904230725 | 92 | 237 | 5.0 | 11.0 | 0.00 | 0.03 | 0.03 | 34 | 1015.7 |
| 20260904223714 | 93 | 285 | 4.0 | 8.0 | 0.00 | 0.03 | 0.03 | 32 | 1015.7 |
| 20260904222726 | 93 | 23 | 1.0 | 6.0 | 0.00 | 0.03 | 0.03 | 33 | 1015.6 |
| 20260904221731 | 93 | 187 | 6.0 | 10.0 | 0.00 | 0.03 | 0.03 | 33 | 1016.0 |
| 20260904220728 | 93 | 232 | 7.0 | 14.0 | 0.00 | 0.03 | 0.03 | 33 | 1016.0 |